STARLINK-33681, 63438

Orbit data source: Space-Track

STARLINK-33681, 63438 is a payload satellite owned by SpaceX/Seattle (US) in LEO that was launched on Fri, 04 Apr 2025 UTC via an FALCON 9 launch vehicle from the Air Force Western Test Range (AFWTR). Payload-class satellites include a variety of spacecraft equipped with specific instruments for various scientific and technological missions. These include communications satellites like Starlink; space stations such as the ISS; scientific satellites like the Hubble; Earth observation satellites from companies like Planet Labs, Umbra, and HawkEye 360; GPS; miniature CubeSats for education and research; and military/defense satellites.

Loading next visibility...
Identifier
63438, 2025-069F
Orbit
LEO
Country
Flag of USUS
Related business
Manufacturer
SpaceX/Seattle
Mission
Operational Commercial Communications
Bus & Motor
STARLINK V2MO, Unknown motor
Mass
575 kg wet, ~530 kg dry
Launch date (UTC)
2025-04-04 (8 months ago)
Launch vehicle
FALCON 9
Launch site
Air Force Western Test Range (AFWTR)
Object type
Payload
Rocket body
Debris
Shape & HBR
Box + 2 Pan, 17.7 m
Radar Cross Section
36.964 m², Large (>1 m²)

Expand to show TLE details & history
Last TLE update: 19 hours ago

TLE from 19 hours ago
0 STARLINK-33681
1 63438U 25069F   25348.90608025  .00012508  00000-0  43363-3 0  9996
2 63438  53.1579 176.3166 0001206  87.1173 272.9965 15.30205510 40424
Epoch: 2025-12-14T21:44Z
TLE epoch observation values (Epoch: 2025-12-14T21:44:45.333Z)
Latitude
-0.00009°
Longitude
126.31537°
Altitude
476.055 km
Speed
7.629 km/s
True Right ascension
11h 45m 15s
True Declination
0° 00' 00"
Sunlit
Object was in daylight at epoch
Visualization orbit readout
Latitude
Unknown
Longitude
Unknown
Altitude
Unknown
Speed
Unknown
Apparent Right ascension
Unknown
Apparent Declination
Unknown
Sunlit
N/A
Visualization observer readout
Local Sidereal Time
15:12:31
Azimuth
Unknown
Elevation
Unknown
Doppler factor
Unknown
Orbital elements
Apogee altitude
476.282 km
Perigee altitude
474.629 km
Semi-major axis
6,853.592 km
Eccentricity
0.00012
Inclination
53.1579°
RAAN
176.3166°
Arg. of periapsis
87.1173°
True anomaly
272.9827°
Mean anomaly
272.9965°
Eccentric anomaly
272.9896°
Mean motion
3.8253 °/min
Orbital period
94.11 mins
BSTAR
0.00043363
Loading maneuver chart data...
Computing Atmospheric mass density...
Loading historical data...
Loading historical data...
Loading historical data...
Loading historical data...
Loading historical data...
Loading historical data...
Loading historical data...

Documentation

Showing up to 5 results
|